This is the latest recevied weather packets stored in our database for station/object N7CEE-2. If no packets are shown the sender has not sent any weather packets the latest 10 day(s).
| Time | Temp. | Humidity | Pressure | Rain* | Wind** | Luminosity | Snow |
|---|---|---|---|---|---|---|---|
| 1777433589 | 22.78° C | 21% | 1016.3 hPa | 0 mm | - | 0 W/m² | - |
| 1777433289 | 23.33° C | 21% | 1016.2 hPa | 0 mm | - | 0 W/m² | - |
| 1777432986 | 23.89° C | 20% | 1016.3 hPa | 0 mm | - | 0 W/m² | - |
| 1777432685 | 23.89° C | 19% | 1016.2 hPa | 0 mm | - | 0 W/m² | - |
| 1777432377 | 24.44° C | 19% | 1016.1 hPa | 0 mm | - | 0 W/m² | - |
| 1777432077 | 24.44° C | 18% | 1016 hPa | 0 mm | - | 0 W/m² | - |
| 1777431772 | 25° C | 18% | 1016 hPa | 0 mm | - | 0 W/m² | - |
| 1777431468 | 25° C | 18% | 1016.1 hPa | 0 mm | - | 0 W/m² | - |
| 1777431164 | 25° C | 18% | 1016 hPa | 0 mm | - | 0 W/m² | - |
| 1777430860 | 25° C | 18% | 1015.8 hPa | 0 mm | - | 0 W/m² | - |
| 1777430557 | 25.56° C | 17% | 1016.1 hPa | 0 mm | - | 0 W/m² | - |
| 1777430252 | 25.56° C | 17% | 1015.8 hPa | 0 mm | - | 0 W/m² | - |
| 1777429947 | 25.56° C | 17% | 1015.7 hPa | 0 mm | - | 0 W/m² | - |
| 1777429645 | 26.11° C | 17% | 1015.7 hPa | 0 mm | - | 0 W/m² | - |
| 1777429340 | 26.11° C | 17% | 1015.6 hPa | 0 mm | - | 0 W/m² | - |
| 1777429035 | 26.11° C | 17% | 1015.5 hPa | 0 mm | - | 1 W/m² | - |
| 1777428732 | 26.11° C | 17% | 1015.4 hPa | 0 mm | - | 3 W/m² | - |
| 1777428428 | 26.11° C | 17% | 1015.4 hPa | 0 mm | - | 5 W/m² | - |
| 1777428124 | 26.11° C | 17% | 1015.3 hPa | 0 mm | - | 8 W/m² | - |
| 1777427819 | 26.67° C | 17% | 1015.2 hPa | 0 mm | - | 14 W/m² | - |
| 1777427517 | 26.67° C | 18% | 1015.2 hPa | 0 mm | - | 19 W/m² | - |
| 1777427212 | 26.67° C | 18% | 1015.2 hPa | 0 mm | - | 25 W/m² | - |
| 1777426910 | 26.67° C | 18% | 1015.2 hPa | 0 mm | - | 32 W/m² | - |
| 1777426607 | 26.67° C | 18% | 1015.4 hPa | 0 mm | - | 37 W/m² | - |
| 1777426303 | 26.67° C | 18% | 1015.3 hPa | 0 mm | - | 43 W/m² | - |
* Rain latest hour (hover to see other rain measurements)
** Current wind speed in m/s (hover to see current wind gust speed)